Starlink 33579

operational
NORAD ID: 62764 Int'l Des: 2025-015 Owner: SPXS Country: US Constellation: starlink
LEOCIRCULAR

Über Starlink 33579

Beschreibung wird geladen...

Live-Position

3D-Globus wird geladen...

Nächste Überflüge

Höhenverlauf

Altitude vs Time

uPlot chart will show altitude changes over time

Zweizeiliger Elementsatz

1 62764U 25015G 25305.72189311 .00029936 00000-0 10184-2 0 9990
2 62764 53.1589 196.5058 0001671 96.6063 263.5128 15.30213417 44896
Epoch: 1. Nov. 2025 • Age: 39 hours

Aktueller Status

Höhe 482.2 km
Geschwindigkeit 7.62 km/s
Subsatellitenpunkt -22.99°S, 1.88°E
Startdatum 21. Jan. 2025
Alter 0.7 years
Typ internet

Technische Details

Klassifizierung Payload
Masse 575.00 kg
Trockenmasse 530.00 kg
Gesamtmasse 575.00 kg
Länge 0.30 m
Durchmesser 4.10 m
Spannweite 29.00 m
Form Box + pan
Hersteller SPXS
Bus-Typ Starlink V2MO
Phasenstatus In Orbit
Besitzer/Staat SPXS/US

Große Konstellationen

Loading constellations...